International Skating Union - Official Site

Essent ISU World Cup Astana
December 1-2, 2012

Draw | Lap Times | Index | World Cup

Referee: Jan  BOLT  (NED)
Starter: Jirku  JÄÄSKELÄINEN  (FIN)
StartTime: EndTime: Air Temp: Ice Temp: Humidity:
17:23 18:11 16.5 ℃ -6.5 ℃ 23
Result Team Pursuit Men
Rankings as of Dec 2 2012 6:52PM
Rank: No.: Team: Nation: Time: Behind: Points:
Total 12
1 1 Netherlands (41) Jorrit Bergsma (50) Koen Verweij (43) Jan Blokhuijsen (0)   NED NED 3:41.270.5 - 17.92 - (17.9)
1.0 - 30.87 - (12.9)
1.5 - 44.15 - (13.2)
2.0 - 57.21 - (13.0)
2.5 - 1:10.72 - (13.5)
3.0 - 1:24.15 - (13.4)
3.5 - 1:37.82 - (13.6)
4.0 - 1:51.66 - (13.8)
4.5 - 2:05.33 - (13.6)
5.0 - 2:19.02 - (13.6)
5.5 - 2:32.91 - (13.8)
6.0 - 2:46.52 - (13.6)
6.5 - 3:00.15 - (13.6)
7.0 - 3:13.96 - (13.8)
7.5 - 3:27.64 - (13.6)
8.0 - 3:41.27 - (13.6)
100
2 3 Korea (40) Seung-Hoon Lee (36) Hyung-Joon Joo (37) Cheol-Min KIM (0)   KOR KOR 3:41.490.5 - 17.67 - (17.6)
1.0 - 30.71 - (13.0)
1.5 - 43.70 - (12.9)
2.0 - 56.95 - (13.2)
2.5 - 1:10.39 - (13.4)
3.0 - 1:23.97 - (13.5)
3.5 - 1:37.66 - (13.6)
4.0 - 1:51.05 - (13.3)
4.5 - 2:04.73 - (13.6)
5.0 - 2:18.63 - (13.8)
5.5 - 2:32.70 - (14.0)
6.0 - 2:46.59 - (13.8)
6.5 - 3:00.57 - (13.9)
7.0 - 3:14.12 - (13.5)
7.5 - 3:27.78 - (13.6)
8.0 - 3:41.48 - (13.6)
0.22 80
3 6 Norway (52) Håvard Bøkko (56) Sverre Lunde Pedersen (55) Simen Spieler Nilsen (0)   NOR NOR 3:43.430.5 - 17.69 - (17.6)
1.0 - 31.14 - (13.4)
1.5 - 44.61 - (13.4)
2.0 - 58.27 - (13.6)
2.5 - 1:11.70 - (13.4)
3.0 - 1:25.13 - (13.4)
3.5 - 1:38.66 - (13.5)
4.0 - 1:52.36 - (13.7)
4.5 - 2:06.37 - (14.0)
5.0 - 2:20.30 - (13.9)
5.5 - 2:34.31 - (14.0)
6.0 - 2:47.96 - (13.6)
6.5 - 3:01.52 - (13.5)
7.0 - 3:15.40 - (13.8)
7.5 - 3:29.38 - (13.9)
8.0 - 3:43.43 - (14.0)
2.16 70
4 4 Canada (9) Denny Morrison (8) Lucas Makowsky (6) Jordan Belchos (0)   CAN CAN 3:44.790.5 - 17.38 - (17.3)
1.0 - 30.24 - (12.8)
1.5 - 43.09 - (12.8)
2.0 - 56.26 - (13.1)
2.5 - 1:09.41 - (13.1)
3.0 - 1:22.80 - (13.3)
3.5 - 1:36.45 - (13.6)
4.0 - 1:50.09 - (13.6)
4.5 - 2:03.86 - (13.7)
5.0 - 2:17.81 - (13.9)
5.5 - 2:31.78 - (13.9)
6.0 - 2:45.98 - (14.1)
6.5 - 3:00.34 - (14.3)
7.0 - 3:15.09 - (14.7)
7.5 - 3:29.70 - (14.6)
8.0 - 3:44.78 - (15.0)
3.52 60
5 7 Poland (61) Konrad Niedzwiedzki (58) Zbigniew Brodka (62) Jan Szymanski (0)   POL POL 3:45.350.5 - 17.61 - (17.6)
1.0 - 31.02 - (13.4)
1.5 - 44.66 - (13.6)
2.0 - 58.20 - (13.5)
2.5 - 1:11.92 - (13.7)
3.0 - 1:25.71 - (13.7)
3.5 - 1:39.28 - (13.5)
4.0 - 1:52.81 - (13.5)
4.5 - 2:06.65 - (13.8)
5.0 - 2:20.31 - (13.6)
5.5 - 2:34.27 - (13.9)
6.0 - 2:48.41 - (14.1)
6.5 - 3:02.48 - (14.0)
7.0 - 3:16.64 - (14.1)
7.5 - 3:31.13 - (14.4)
8.0 - 3:45.35 - (14.2)
4.08 50
6 9 France (13) Alexis Contin (15) Benjamin Macé (14) Ewen Fernandez (0)   FRA FRA 3:45.690.5 - 17.99 - (17.9)
1.0 - 31.68 - (13.6)
1.5 - 45.35 - (13.6)
2.0 - 59.25 - (13.8)
2.5 - 1:12.86 - (13.6)
3.0 - 1:26.61 - (13.7)
3.5 - 1:40.54 - (13.9)
4.0 - 1:54.37 - (13.8)
4.5 - 2:08.25 - (13.8)
5.0 - 2:22.22 - (13.9)
5.5 - 2:36.11 - (13.8)
6.0 - 2:50.09 - (13.9)
6.5 - 3:04.20 - (14.1)
7.0 - 3:18.14 - (13.9)
7.5 - 3:32.01 - (13.8)
8.0 - 3:45.66 - (13.6)
4.42 45
7 2 Russia (69) Ivan Skobrev (66) Yevgeny Lalenkov (70) Denis Yuskov (0)   RUS RUS 3:45.720.5 - 17.85 - (17.8)
1.0 - 31.43 - (13.5)
1.5 - 44.93 - (13.5)
2.0 - 58.30 - (13.3)
2.5 - 1:11.68 - (13.3)
3.0 - 1:25.30 - (13.6)
3.5 - 1:38.97 - (13.6)
4.0 - 1:52.77 - (13.7)
4.5 - 2:06.56 - (13.7)
5.0 - 2:20.66 - (14.0)
5.5 - 2:34.50 - (13.8)
6.0 - 2:48.58 - (14.0)
6.5 - 3:02.64 - (14.0)
7.0 - 3:16.85 - (14.2)
7.5 - 3:31.19 - (14.3)
8.0 - 3:45.72 - (14.5)
4.45 40
8 5 Germany (18) Moritz Geisreiter (16) Alexej Baumgärtner (20) Marco Weber (0)   GER GER 3:46.960.5 - 18.02 - (18.0)
1.0 - 31.71 - (13.6)
1.5 - 45.37 - (13.6)
2.0 - 59.07 - (13.7)
2.5 - 1:12.84 - (13.7)
3.0 - 1:26.51 - (13.6)
3.5 - 1:40.41 - (13.8)
4.0 - 1:54.07 - (13.6)
4.5 - 2:08.02 - (13.9)
5.0 - 2:22.00 - (13.9)
5.5 - 2:36.42 - (14.4)
6.0 - 2:50.64 - (14.2)
6.5 - 3:04.94 - (14.3)
7.0 - 3:19.31 - (14.3)
7.5 - 3:33.17 - (13.8)
8.0 - 3:46.96 - (13.7)
5.69 35
9 11 Belgium (3) Bart Swings (4) Maarten Swings (2) Ferre Spruyt (0)   BEL BEL 3:49.270.5 - 18.68 - (18.6)
1.0 - 32.25 - (13.5)
1.5 - 45.68 - (13.4)
2.0 - 59.29 - (13.6)
2.5 - 1:13.17 - (13.8)
3.0 - 1:27.01 - (13.8)
3.5 - 1:41.14 - (14.1)
4.0 - 1:55.25 - (14.1)
4.5 - 2:09.55 - (14.3)
5.0 - 2:23.53 - (13.9)
5.5 - 2:37.63 - (14.0)
6.0 - 2:51.76 - (14.1)
6.5 - 3:06.10 - (14.3)
7.0 - 3:20.51 - (14.4)
7.5 - 3:34.89 - (14.3)
8.0 - 3:49.25 - (14.3)
8.00 30
10 8 Italy (21) Matteo Anesi (24) Mirko Giacomo Nenzi (25) Luca Stefani (0)   ITA ITA 3:50.120.5 - 17.73 - (17.7)
1.0 - 31.66 - (13.9)
1.5 - 45.45 - (13.7)
2.0 - 59.27 - (13.8)
2.5 - 1:12.76 - (13.4)
3.0 - 1:26.39 - (13.6)
3.5 - 1:40.16 - (13.7)
4.0 - 1:54.33 - (14.1)
4.5 - 2:08.42 - (14.0)
5.0 - 2:22.41 - (13.9)
5.5 - 2:36.69 - (14.2)
6.0 - 2:51.22 - (14.5)
6.5 - 3:05.56 - (14.3)
7.0 - 3:20.09 - (14.5)
7.5 - 3:34.85 - (14.7)
8.0 - 3:50.09 - (15.2)
8.85 25
11 12 Kazakhstan (30) Dmitry Babenko (32) Denis Kuzin (35) Aleksandr Zhigin (0)   KAZ KAZ 3:51.320.5 - 18.06 - (18.0)
1.0 - 31.91 - (13.8)
1.5 - 45.91 - (13.9)
2.0 - 1:00.14 - (14.2)
2.5 - 1:14.75 - (14.6)
3.0 - 1:28.85 - (14.0)
3.5 - 1:42.63 - (13.7)
4.0 - 1:56.19 - (13.5)
4.5 - 2:09.70 - (13.5)
5.0 - 2:23.24 - (13.5)
5.5 - 2:37.10 - (13.8)
6.0 - 2:51.25 - (14.1)
6.5 - 3:05.81 - (14.5)
7.0 - 3:20.77 - (14.9)
7.5 - 3:35.89 - (15.1)
8.0 - 3:51.32 - (15.4)
10.05 21
12 10 Japan (29) Norimasa Zaike (27) Teppei Mori (26) Taro Kondo (0)   JPN JPN 3:52.440.5 - 18.00 - (18.0)
1.0 - 32.03 - (14.0)
1.5 - 46.04 - (14.0)
2.0 - 59.85 - (13.8)
2.5 - 1:13.91 - (14.0)
3.0 - 1:27.96 - (14.0)
3.5 - 1:42.29 - (14.3)
4.0 - 1:56.49 - (14.1)
4.5 - 2:11.04 - (14.5)
5.0 - 2:25.32 - (14.2)
5.5 - 2:39.69 - (14.3)
6.0 - 2:53.84 - (14.1)
6.5 - 3:08.27 - (14.4)
7.0 - 3:22.90 - (14.6)
7.5 - 3:37.77 - (14.8)
8.0 - 3:52.43 - (14.6)
11.17 18